Datum;Stunden;Zählung;Temperatur (°C);Min. Temperatur (°C);Max. Temperatur (°C);Windstärke (km/h);Regen (mm);Schnee (mm);Wetter
01.01.2017;00:00:00;1;-2;-;-;19;;;teilweise bewölkt
01.01.2017;01:00:00;1;-3;-;-;20;;;
01.01.2017;02:00:00;2;-3;-;-;13;;;wolkig
01.01.2017;03:00:00;2;-3;-;-;15;;;wolkig
01.01.2017;04:00:00;0;-3;-;-;17;;;wolkig
01.01.2017;05:00:00;1;-3;-;-;17;;;wolkig
01.01.2017;06:00:00;0;-2;-;-;15;;;wolkig
01.01.2017;07:00:00;0;-2;-;-;20;;;wolkig
01.01.2017;08:00:00;0;-2;-;-;20;;;wolkig
01.01.2017;09:00:00;2;-2;-;-;19;;;wolkig
01.01.2017;10:00:00;3;-1;-;-;19;;;teilweise bewölkt
01.01.2017;11:00:00;9;0;-;-;17;;;teilweise bewölkt
01.01.2017;12:00:00;10;1;-;-;15;;;Klarer Himmel
01.01.2017;13:00:00;21;1;-;-;17;;;Klarer Himmel
01.01.2017;14:00:00;31;1;-;-;22;;;Klarer Himmel
01.01.2017;15:00:00;36;1;-;-;17;;;wolkig
01.01.2017;16:00:00;14;1;-;-;17;;;wolkig
01.01.2017;17:00:00;2;1;-;-;15;;;wolkig
01.01.2017;18:00:00;0;2;-;-;17;;;wolkig
01.01.2017;19:00:00;3;2;-;-;19;;;wolkig
01.01.2017;20:00:00;1;1;-;-;15;;;wolkig
01.01.2017;21:00:00;0;1;-;-;17;;;Regen
01.01.2017;22:00:00;0;0;-;-;11;;;Regen
01.01.2017;23:00:00;0;0;-;-;15;;;Regen
02.01.2017;00:00:00;0;0;-;-;11;;;Regen
02.01.2017;01:00:00;0;0;-;-;11;;;Schnee
02.01.2017;02:00:00;0;0;-;-;7;;;Schnee
02.01.2017;03:00:00;0;0;-;-;6;;;Schnee
02.01.2017;04:00:00;0;0;-;-;6;;;Schnee
02.01.2017;05:00:00;5;0;-;-;7;;;Schnee
02.01.2017;06:00:00;9;0;-;-;9;;;wolkig
02.01.2017;07:00:00;21;1;-;-;6;;;wolkig
02.01.2017;08:00:00;16;1;-;-;9;;;wolkig
02.01.2017;09:00:00;10;1;-;-;11;;;wolkig
02.01.2017;10:00:00;2;1;-;-;9;;;wolkig
02.01.2017;11:00:00;2;1;-;-;9;;;wolkig
02.01.2017;12:00:00;7;3;-;-;11;;;teilweise bewölkt
02.01.2017;13:00:00;8;4;-;-;15;;;teilweise bewölkt
02.01.2017;14:00:00;6;5;-;-;13;;;teilweise bewölkt
02.01.2017;15:00:00;11;4;-;-;11;;;wolkig
02.01.2017;16:00:00;25;4;-;-;11;;;wolkig
02.01.2017;17:00:00;12;3;-;-;11;;;wolkig
02.01.2017;18:00:00;11;2;-;-;11;;;wolkig
02.01.2017;19:00:00;5;1;-;-;13;;;wolkig
02.01.2017;20:00:00;3;1;-;-;13;;;Klarer Himmel
02.01.2017;21:00:00;1;0;-;-;11;;;wolkig
02.01.2017;22:00:00;4;0;-;-;9;;;teilweise bewölkt
02.01.2017;23:00:00;4;0;-;-;7;;;teilweise bewölkt
03.01.2017;00:00:00;0;0;-;-;9;;;teilweise bewölkt
03.01.2017;01:00:00;0;0;-;-;11;;;teilweise bewölkt
03.01.2017;02:00:00;0;-3;-;-;9;;;wolkig
03.01.2017;03:00:00;0;-2;-;-;7;;;Nebel
03.01.2017;04:00:00;1;1;-;-;11;;;wolkig
03.01.2017;05:00:00;7;1;-;-;11;;;wolkig
03.01.2017;06:00:00;11;1;-;-;13;;;Regen
03.01.2017;07:00:00;14;2;-;-;17;;;wolkig
03.01.2017;08:00:00;22;2;-;-;15;;;wolkig
03.01.2017;09:00:00;16;2;-;-;15;;;wolkig
03.01.2017;10:00:00;1;2;-;-;19;;;wolkig
03.01.2017;11:00:00;2;3;-;-;24;;;wolkig
03.01.2017;12:00:00;4;3;-;-;26;;;wolkig
03.01.2017;13:00:00;12;2;-;-;24;;;wolkig
03.01.2017;14:00:00;7;3;-;-;22;;;wolkig
03.01.2017;15:00:00;12;2;-;-;26;;;wolkig
03.01.2017;16:00:00;18;3;-;-;28;;;Regen
03.01.2017;17:00:00;17;3;-;-;24;;;Regen
03.01.2017;18:00:00;11;3;-;-;24;;;wolkig
03.01.2017;19:00:00;5;3;-;-;28;;;wolkig
03.01.2017;20:00:00;2;3;-;-;28;;;wolkig
03.01.2017;21:00:00;3;4;-;-;24;;;wolkig
03.01.2017;22:00:00;5;4;-;-;30;;;wolkig
03.01.2017;23:00:00;3;4;-;-;32;;;Regen
04.01.2017;00:00:00;0;3;-;-;26;;;Regen
04.01.2017;01:00:00;0;3;-;-;33;;;Regen
04.01.2017;02:00:00;1;3;-;-;30;;;Regen
04.01.2017;03:00:00;0;4;-;-;33;;;Regen
04.01.2017;04:00:00;1;4;-;-;32;;;Regen
04.01.2017;05:00:00;5;4;-;-;24;;;Regen
04.01.2017;06:00:00;15;5;-;-;26;;;wolkig
04.01.2017;07:00:00;19;5;-;-;19;;;wolkig
04.01.2017;08:00:00;12;6;-;-;24;;;wolkig
04.01.2017;09:00:00;9;6;-;-;26;;;wolkig
04.01.2017;10:00:00;9;6;-;-;22;;;wolkig
04.01.2017;11:00:00;5;6;-;-;28;;;Regen
04.01.2017;12:00:00;11;6;-;-;26;;;Regen
04.01.2017;13:00:00;17;5;-;-;28;;;wolkig
04.01.2017;14:00:00;8;6;-;-;24;;;teilweise bewölkt
04.01.2017;15:00:00;15;5;-;-;19;;;teilweise bewölkt
04.01.2017;16:00:00;20;5;-;-;26;;;wolkig
04.01.2017;17:00:00;12;3;-;-;30;;;Regen
04.01.2017;18:00:00;13;3;-;-;15;;;wolkig
04.01.2017;19:00:00;4;4;-;-;22;;;wolkig
04.01.2017;20:00:00;5;3;-;-;13;;;teilweise bewölkt
04.01.2017;21:00:00;1;2;-;-;11;;;teilweise bewölkt
04.01.2017;22:00:00;6;2;-;-;7;;;teilweise bewölkt
04.01.2017;23:00:00;5;2;-;-;11;;;Klarer Himmel
05.01.2017;00:00:00;0;1;-;-;6;;;Klarer Himmel
05.01.2017;01:00:00;0;1;-;-;2;;;Klarer Himmel
05.01.2017;02:00:00;0;1;-;-;11;;;Klarer Himmel
05.01.2017;03:00:00;0;1;-;-;6;;;wolkig
05.01.2017;04:00:00;1;2;-;-;11;;;wolkig
05.01.2017;05:00:00;13;2;-;-;15;;;teilweise bewölkt
05.01.2017;06:00:00;10;1;-;-;11;;;wolkig
05.01.2017;07:00:00;18;0;-;-;9;;;teilweise bewölkt
05.01.2017;08:00:00;30;-1;-;-;6;;;Klarer Himmel
05.01.2017;09:00:00;6;0;-;-;7;;;Nebel
05.01.2017;10:00:00;11;1;-;-;15;;;Nebel
05.01.2017;11:00:00;12;2;-;-;15;;;teilweise bewölkt
05.01.2017;12:00:00;11;2;-;-;19;;;teilweise bewölkt
05.01.2017;13:00:00;17;2;-;-;19;;;teilweise bewölkt
05.01.2017;14:00:00;16;1;-;-;15;;;teilweise bewölkt
05.01.2017;15:00:00;36;1;-;-;17;;;teilweise bewölkt
05.01.2017;16:00:00;27;0;-;-;11;;;teilweise bewölkt
05.01.2017;17:00:00;19;-1;-;-;7;;;teilweise bewölkt
05.01.2017;18:00:00;14;-2;-;-;6;;;teilweise bewölkt
05.01.2017;19:00:00;2;-3;-;-;6;;;teilweise bewölkt
05.01.2017;20:00:00;4;-3;-;-;9;;;teilweise bewölkt
05.01.2017;21:00:00;2;-4;-;-;6;;;teilweise bewölkt
05.01.2017;22:00:00;5;-6;-;-;4;;;Klarer Himmel
05.01.2017;23:00:00;2;-7;-;-;6;;;Klarer Himmel
06.01.2017;00:00:00;0;-6;-;-;4;;;Klarer Himmel
06.01.2017;01:00:00;0;-7;-;-;7;;;Klarer Himmel
06.01.2017;02:00:00;0;-8;-;-;7;;;Klarer Himmel
06.01.2017;03:00:00;0;-7;-;-;4;;;Klarer Himmel
06.01.2017;04:00:00;0;-9;-;-;4;;;Klarer Himmel
06.01.2017;05:00:00;8;-8;-;-;4;;;Klarer Himmel
06.01.2017;06:00:00;10;-9;-;-;4;;;Klarer Himmel
06.01.2017;07:00:00;23;-9;-;-;6;;;Klarer Himmel
06.01.2017;08:00:00;23;-7;-;-;4;;;Klarer Himmel
06.01.2017;09:00:00;7;-4;-;-;17;;;Klarer Himmel
06.01.2017;10:00:00;2;-4;-;-;15;;;Klarer Himmel
06.01.2017;11:00:00;3;-3;-;-;17;;;Klarer Himmel
06.01.2017;12:00:00;6;-2;-;-;11;;;Klarer Himmel
06.01.2017;13:00:00;22;-1;-;-;9;;;Klarer Himmel
06.01.2017;14:00:00;18;-1;-;-;15;;;Klarer Himmel
06.01.2017;15:00:00;23;-1;-;-;13;;;Klarer Himmel
06.01.2017;16:00:00;17;-2;-;-;13;;;Klarer Himmel
06.01.2017;17:00:00;12;-3;-;-;9;;;Klarer Himmel
06.01.2017;18:00:00;11;-3;-;-;15;;;Klarer Himmel
06.01.2017;19:00:00;8;-3;-;-;15;;;Klarer Himmel
06.01.2017;20:00:00;2;-4;-;-;17;;;Klarer Himmel
06.01.2017;21:00:00;1;-4;-;-;15;;;Klarer Himmel
06.01.2017;22:00:00;8;-4;-;-;15;;;Klarer Himmel
06.01.2017;23:00:00;1;-4;-;-;20;;;Klarer Himmel
07.01.2017;00:00:00;0;-4;-;-;19;;;Klarer Himmel
07.01.2017;01:00:00;0;-4;-;-;15;;;Klarer Himmel
07.01.2017;02:00:00;0;-4;-;-;15;;;wolkig
07.01.2017;03:00:00;0;-4;-;-;19;;;wolkig
07.01.2017;04:00:00;0;-4;-;-;17;;;wolkig
07.01.2017;05:00:00;0;-4;-;-;15;;;Schnee
07.01.2017;06:00:00;0;-4;-;-;22;;;Schnee
07.01.2017;07:00:00;0;-4;-;-;22;;;Schnee
07.01.2017;08:00:00;0;-3;-;-;19;;;Schnee
07.01.2017;09:00:00;3;-3;-;-;22;;;Schnee
07.01.2017;10:00:00;4;-3;-;-;22;;;wolkig
07.01.2017;11:00:00;8;-2;-;-;22;;;Regen
07.01.2017;12:00:00;5;-2;-;-;19;;;Regen
07.01.2017;13:00:00;7;-2;-;-;22;;;Regen
07.01.2017;14:00:00;4;-2;-;-;20;;;Schneeregen
07.01.2017;15:00:00;12;-2;-;-;13;;;Schneeregen
07.01.2017;16:00:00;1;-2;-;-;13;;;Schneeregen
07.01.2017;17:00:00;0;-1;-;-;13;;;Schneeregen
07.01.2017;18:00:00;1;-1;-;-;9;;;wolkig
07.01.2017;19:00:00;0;0;-;-;7;;;Regen
07.01.2017;20:00:00;0;0;-;-;6;;;wolkig
07.01.2017;21:00:00;2;0;-;-;6;;;Regen
07.01.2017;22:00:00;0;0;-;-;4;;;wolkig
07.01.2017;23:00:00;4;0;-;-;6;;;Schneeregen
08.01.2017;00:00:00;0;0;-;-;7;;;Regen
08.01.2017;01:00:00;0;0;-;-;6;;;Nebel
08.01.2017;02:00:00;0;1;-;-;9;;;Regen
08.01.2017;03:00:00;0;1;-;-;6;;;Regen
08.01.2017;04:00:00;0;1;-;-;2;;;Nebel
08.01.2017;05:00:00;0;1;-;-;4;;;Regen
08.01.2017;06:00:00;1;2;-;-;9;;;Regen
08.01.2017;07:00:00;0;2;-;-;6;;;Regen
08.01.2017;08:00:00;1;2;-;-;6;;;Nebel
08.01.2017;09:00:00;1;2;-;-;7;;;Nebel
08.01.2017;10:00:00;3;2;-;-;7;;;Nebel
08.01.2017;11:00:00;4;3;-;-;6;;;Nebel
08.01.2017;12:00:00;9;3;-;-;2;;;wolkig
08.01.2017;13:00:00;8;4;-;-;2;;;wolkig
08.01.2017;14:00:00;11;4;-;-;2;;;wolkig
08.01.2017;15:00:00;8;4;-;-;2;;;wolkig
08.01.2017;16:00:00;6;3;-;-;2;;;Nebel
08.01.2017;17:00:00;1;3;-;-;2;;;Nebel
08.01.2017;18:00:00;5;3;-;-;2;;;Nebel
08.01.2017;19:00:00;1;3;-;-;6;;;wolkig
08.01.2017;20:00:00;4;3;-;-;4;;;wolkig
08.01.2017;21:00:00;0;3;-;-;7;;;wolkig
08.01.2017;22:00:00;0;3;-;-;6;;;wolkig
08.01.2017;23:00:00;0;3;-;-;7;;;wolkig
09.01.2017;00:00:00;0;2;-;-;6;;;wolkig
09.01.2017;01:00:00;0;2;-;-;6;;;wolkig
09.01.2017;02:00:00;0;2;-;-;6;;;wolkig
09.01.2017;03:00:00;0;2;-;-;6;;;wolkig
09.01.2017;04:00:00;2;2;-;-;6;;;wolkig
09.01.2017;05:00:00;11;2;-;-;7;;;wolkig
09.01.2017;06:00:00;25;3;-;-;11;;;wolkig
09.01.2017;07:00:00;40;3;-;-;17;;;wolkig
09.01.2017;08:00:00;44;3;-;-;17;;;wolkig
09.01.2017;09:00:00;23;3;-;-;17;;;wolkig
09.01.2017;10:00:00;10;3;-;-;17;;;wolkig
09.01.2017;11:00:00;5;4;-;-;17;;;wolkig
09.01.2017;12:00:00;5;4;-;-;17;;;wolkig
09.01.2017;13:00:00;21;5;-;-;17;;;Regen
09.01.2017;14:00:00;17;5;-;-;19;;;wolkig
09.01.2017;15:00:00;30;5;-;-;20;;;wolkig
09.01.2017;16:00:00;33;5;-;-;19;;;wolkig
09.01.2017;17:00:00;29;4;-;-;20;;;Regen
09.01.2017;18:00:00;27;4;-;-;24;;;wolkig
09.01.2017;19:00:00;8;4;-;-;24;;;Regen
09.01.2017;20:00:00;8;4;-;-;20;;;Regen
09.01.2017;21:00:00;5;4;-;-;24;;;Regen
09.01.2017;22:00:00;4;4;-;-;22;;;Regen
09.01.2017;23:00:00;1;3;-;-;24;;;Regen
10.01.2017;00:00:00;0;3;-;-;24;;;Regen
10.01.2017;01:00:00;2;3;-;-;26;;;Regen
10.01.2017;02:00:00;0;3;-;-;24;;;Regen
10.01.2017;03:00:00;0;3;-;-;28;;;Regen
10.01.2017;04:00:00;1;3;-;-;28;;;
10.01.2017;05:00:00;8;3;-;-;28;;;Regen
10.01.2017;06:00:00;23;3;-;-;20;;;Regen
10.01.2017;07:00:00;35;3;-;-;17;;;wolkig
10.01.2017;08:00:00;53;3;-;-;17;;;wolkig
10.01.2017;09:00:00;19;3;-;-;17;;;wolkig
10.01.2017;10:00:00;4;3;-;-;13;;;
10.01.2017;11:00:00;9;4;-;-;13;;;wolkig
10.01.2017;12:00:00;4;4;-;-;15;;;wolkig
10.01.2017;13:00:00;11;4;-;-;11;;;Regen
10.01.2017;14:00:00;15;5;-;-;9;;;wolkig
10.01.2017;15:00:00;18;5;-;-;11;;;wolkig
10.01.2017;16:00:00;34;5;-;-;9;;;wolkig
10.01.2017;17:00:00;22;5;-;-;13;;;wolkig
10.01.2017;18:00:00;25;4;-;-;13;;;wolkig
10.01.2017;19:00:00;19;4;-;-;13;;;Regen
10.01.2017;20:00:00;15;3;-;-;15;;;Regen
10.01.2017;21:00:00;6;3;-;-;15;;;wolkig
10.01.2017;22:00:00;4;3;-;-;17;;;wolkig
10.01.2017;23:00:00;0;3;-;-;19;;;wolkig
11.01.2017;00:00:00;0;3;-;-;15;;;wolkig
11.01.2017;01:00:00;0;3;-;-;19;;;wolkig
11.01.2017;02:00:00;1;3;-;-;22;;;wolkig
11.01.2017;03:00:00;0;3;-;-;19;;;wolkig
11.01.2017;04:00:00;1;3;-;-;19;;;Regen
11.01.2017;05:00:00;10;3;-;-;22;;;wolkig
11.01.2017;06:00:00;23;4;-;-;24;;;wolkig
11.01.2017;07:00:00;41;5;-;-;20;;;wolkig
11.01.2017;08:00:00;38;5;-;-;22;;;wolkig
11.01.2017;09:00:00;17;5;-;-;28;;;Regen
11.01.2017;10:00:00;1;6;-;-;30;;;Regen
11.01.2017;11:00:00;3;6;-;-;30;;;Regen
11.01.2017;12:00:00;3;6;-;-;30;;;Regen
11.01.2017;13:00:00;6;7;-;-;28;;;Regen
11.01.2017;14:00:00;11;8;-;-;22;;;Regen
11.01.2017;15:00:00;16;8;-;-;20;;;wolkig
11.01.2017;16:00:00;31;7;-;-;41;;;Regen
11.01.2017;17:00:00;20;6;-;-;26;;;wolkig
11.01.2017;18:00:00;20;6;-;-;19;;;wolkig
11.01.2017;19:00:00;13;6;-;-;26;;;Regen
11.01.2017;20:00:00;5;6;-;-;26;;;wolkig
11.01.2017;21:00:00;5;6;-;-;24;;;teilweise bewölkt
11.01.2017;22:00:00;2;6;-;-;20;;;teilweise bewölkt
11.01.2017;23:00:00;2;5;-;-;20;;;teilweise bewölkt
12.01.2017;00:00:00;2;5;-;-;24;;;teilweise bewölkt
12.01.2017;01:00:00;0;5;-;-;22;;;teilweise bewölkt
12.01.2017;02:00:00;0;4;-;-;19;;;wolkig
12.01.2017;03:00:00;0;4;-;-;19;;;wolkig
12.01.2017;04:00:00;1;4;-;-;22;;;wolkig
12.01.2017;05:00:00;9;4;-;-;24;;;wolkig
12.01.2017;06:00:00;29;4;-;-;24;;;wolkig
12.01.2017;07:00:00;40;4;-;-;26;;;Klarer Himmel
12.01.2017;08:00:00;33;4;-;-;22;;;Klarer Himmel
12.01.2017;09:00:00;20;5;-;-;22;;;wolkig
12.01.2017;10:00:00;13;5;-;-;22;;;teilweise bewölkt
12.01.2017;11:00:00;10;6;-;-;24;;;wolkig
12.01.2017;12:00:00;12;6;-;-;20;;;wolkig
12.01.2017;13:00:00;14;7;-;-;24;;;wolkig
12.01.2017;14:00:00;25;7;-;-;22;;;wolkig
12.01.2017;15:00:00;33;6;-;-;19;;;wolkig
12.01.2017;16:00:00;33;6;-;-;19;;;Regen
12.01.2017;17:00:00;25;6;-;-;13;;;Regen
12.01.2017;18:00:00;14;5;-;-;19;;;Regen
12.01.2017;19:00:00;12;5;-;-;24;;;Regen
12.01.2017;20:00:00;7;4;-;-;32;;;Regen
12.01.2017;21:00:00;3;3;-;-;33;;;Regen
12.01.2017;22:00:00;1;3;-;-;33;;;Regen
12.01.2017;23:00:00;1;4;-;-;32;;;wolkig
13.01.2017;00:00:00;0;5;-;-;28;;;Regen
13.01.2017;01:00:00;0;4;-;-;30;;;Regen
13.01.2017;02:00:00;0;3;-;-;24;;;Regen
13.01.2017;03:00:00;0;1;-;-;35;;;Schnee
13.01.2017;04:00:00;2;1;-;-;37;;;Schnee
13.01.2017;05:00:00;6;2;-;-;37;;;Regen
13.01.2017;06:00:00;15;2;-;-;30;;;Schnee
13.01.2017;07:00:00;13;3;-;-;26;;;wolkig
13.01.2017;08:00:00;30;2;-;-;28;;;wolkig
13.01.2017;09:00:00;5;2;-;-;28;;;Schnee
13.01.2017;10:00:00;3;2;-;-;28;;;wolkig
13.01.2017;11:00:00;2;2;-;-;26;;;Schnee
13.01.2017;12:00:00;5;2;-;-;19;;;wolkig
13.01.2017;13:00:00;7;2;-;-;22;;;teilweise bewölkt
13.01.2017;14:00:00;17;3;-;-;26;;;teilweise bewölkt
13.01.2017;15:00:00;26;3;-;-;24;;;teilweise bewölkt
13.01.2017;16:00:00;25;2;-;-;28;;;teilweise bewölkt
13.01.2017;17:00:00;9;2;-;-;28;;;wolkig
13.01.2017;18:00:00;8;2;-;-;26;;;wolkig
13.01.2017;19:00:00;4;1;-;-;26;;;Regen
13.01.2017;20:00:00;6;0;-;-;15;;;Schnee
13.01.2017;21:00:00;5;1;-;-;13;;;wolkig
13.01.2017;22:00:00;1;3;-;-;17;;;wolkig
13.01.2017;23:00:00;0;4;-;-;24;;;wolkig
14.01.2017;00:00:00;2;4;-;-;22;;;wolkig
14.01.2017;01:00:00;1;4;-;-;24;;;wolkig
14.01.2017;02:00:00;3;4;-;-;24;;;wolkig
14.01.2017;03:00:00;0;4;-;-;24;;;wolkig
14.01.2017;04:00:00;1;3;-;-;24;;;wolkig
14.01.2017;05:00:00;1;2;-;-;22;;;Klarer Himmel
14.01.2017;06:00:00;3;2;-;-;20;;;teilweise bewölkt
14.01.2017;07:00:00;1;2;-;-;24;;;Klarer Himmel
14.01.2017;08:00:00;3;1;-;-;22;;;teilweise bewölkt
14.01.2017;09:00:00;4;2;-;-;19;;;wolkig
14.01.2017;10:00:00;5;2;-;-;17;;;wolkig
14.01.2017;11:00:00;17;2;-;-;19;;;wolkig
14.01.2017;12:00:00;28;3;-;-;24;;;teilweise bewölkt
14.01.2017;13:00:00;11;4;-;-;26;;;teilweise bewölkt
14.01.2017;14:00:00;24;4;-;-;28;;;wolkig
14.01.2017;15:00:00;12;2;-;-;30;;;Schnee
14.01.2017;16:00:00;7;1;-;-;13;;;wolkig
14.01.2017;17:00:00;5;1;-;-;9;;;teilweise bewölkt
14.01.2017;18:00:00;0;1;-;-;13;;;teilweise bewölkt
14.01.2017;19:00:00;0;1;-;-;17;;;teilweise bewölkt
14.01.2017;20:00:00;0;1;-;-;17;;;teilweise bewölkt
14.01.2017;21:00:00;3;1;-;-;11;;;wolkig
14.01.2017;22:00:00;1;1;-;-;15;;;wolkig
14.01.2017;23:00:00;0;0;-;-;9;;;teilweise bewölkt
15.01.2017;00:00:00;1;0;-;-;15;;;Schnee
15.01.2017;01:00:00;1;1;-;-;17;;;Schnee
15.01.2017;02:00:00;1;0;-;-;13;;;teilweise bewölkt
15.01.2017;03:00:00;0;0;-;-;13;;;wolkig
15.01.2017;04:00:00;1;0;-;-;9;;;wolkig
15.01.2017;05:00:00;1;-1;-;-;11;;;teilweise bewölkt
15.01.2017;06:00:00;0;-3;-;-;2;;;teilweise bewölkt
15.01.2017;07:00:00;1;-4;-;-;6;;;Nebel
15.01.2017;08:00:00;0;-2;-;-;7;;;Nebel
15.01.2017;09:00:00;1;-2;-;-;6;;;teilweise bewölkt
15.01.2017;10:00:00;6;0;-;-;9;;;teilweise bewölkt
15.01.2017;11:00:00;8;1;-;-;11;;;wolkig
15.01.2017;12:00:00;15;2;-;-;13;;;wolkig
15.01.2017;13:00:00;13;2;-;-;15;;;wolkig
15.01.2017;14:00:00;9;2;-;-;13;;;wolkig
15.01.2017;15:00:00;24;1;-;-;11;;;wolkig
15.01.2017;16:00:00;11;1;-;-;7;;;wolkig
15.01.2017;17:00:00;3;1;-;-;4;;;wolkig
15.01.2017;18:00:00;2;1;-;-;6;;;wolkig
15.01.2017;19:00:00;2;1;-;-;4;;;wolkig
15.01.2017;20:00:00;1;1;-;-;6;;;wolkig
15.01.2017;21:00:00;4;1;-;-;2;;;wolkig
15.01.2017;22:00:00;0;0;-;-;2;;;wolkig
15.01.2017;23:00:00;2;-1;-;-;2;;;wolkig
16.01.2017;00:00:00;0;0;-;-;2;;;wolkig
16.01.2017;01:00:00;0;1;-;-;6;;;wolkig
16.01.2017;02:00:00;0;0;-;-;6;;;wolkig
16.01.2017;03:00:00;0;1;-;-;7;;;wolkig
16.01.2017;04:00:00;0;1;-;-;6;;;wolkig
16.01.2017;05:00:00;10;1;-;-;6;;;wolkig
16.01.2017;06:00:00;18;0;-;-;9;;;wolkig
16.01.2017;07:00:00;44;0;-;-;7;;;wolkig
16.01.2017;08:00:00;47;0;-;-;6;;;wolkig
16.01.2017;09:00:00;17;1;-;-;6;;;wolkig
16.01.2017;10:00:00;6;1;-;-;9;;;wolkig
16.01.2017;11:00:00;9;1;-;-;11;;;wolkig
16.01.2017;12:00:00;13;1;-;-;9;;;wolkig
16.01.2017;13:00:00;11;1;-;-;11;;;wolkig
16.01.2017;14:00:00;16;1;-;-;11;;;teilweise bewölkt
16.01.2017;15:00:00;23;2;-;-;7;;;teilweise bewölkt
16.01.2017;16:00:00;42;1;-;-;4;;;teilweise bewölkt
16.01.2017;17:00:00;44;-1;-;-;6;;;teilweise bewölkt
16.01.2017;18:00:00;25;-1;-;-;7;;;Klarer Himmel
16.01.2017;19:00:00;9;-2;-;-;6;;;Klarer Himmel
16.01.2017;20:00:00;4;-2;-;-;7;;;teilweise bewölkt
16.01.2017;21:00:00;6;-2;-;-;9;;;wolkig
16.01.2017;22:00:00;5;-3;-;-;6;;;teilweise bewölkt
16.01.2017;23:00:00;3;-4;-;-;4;;;teilweise bewölkt
17.01.2017;00:00:00;0;-5;-;-;7;;;teilweise bewölkt
17.01.2017;01:00:00;0;-4;-;-;6;;;wolkig
17.01.2017;02:00:00;0;-3;-;-;7;;;wolkig
17.01.2017;03:00:00;0;-3;-;-;4;;;wolkig
17.01.2017;04:00:00;0;-4;-;-;4;;;wolkig
17.01.2017;05:00:00;9;-4;-;-;6;;;wolkig
17.01.2017;06:00:00;25;-3;-;-;2;;;wolkig
17.01.2017;07:00:00;42;-5;-;-;7;;;teilweise bewölkt
17.01.2017;08:00:00;54;-6;-;-;4;;;teilweise bewölkt
17.01.2017;09:00:00;17;-3;-;-;6;;;teilweise bewölkt
17.01.2017;10:00:00;7;-2;-;-;9;;;Klarer Himmel
17.01.2017;11:00:00;11;-1;-;-;9;;;Klarer Himmel
17.01.2017;12:00:00;12;0;-;-;11;;;teilweise bewölkt
17.01.2017;13:00:00;13;0;-;-;11;;;teilweise bewölkt
17.01.2017;14:00:00;27;0;-;-;17;;;teilweise bewölkt
17.01.2017;15:00:00;21;-1;-;-;17;;;teilweise bewölkt
17.01.2017;16:00:00;29;-2;-;-;11;;;teilweise bewölkt
17.01.2017;17:00:00;28;-2;-;-;15;;;teilweise bewölkt
17.01.2017;18:00:00;20;-2;-;-;9;;;wolkig
17.01.2017;19:00:00;8;-3;-;-;9;;;teilweise bewölkt
17.01.2017;20:00:00;8;-3;-;-;6;;;
17.01.2017;21:00:00;5;-3;-;-;7;;;teilweise bewölkt
17.01.2017;22:00:00;2;-4;-;-;6;;;Klarer Himmel
17.01.2017;23:00:00;6;-4;-;-;9;;;teilweise bewölkt
18.01.2017;00:00:00;0;-5;-;-;7;;;teilweise bewölkt
18.01.2017;01:00:00;0;-5;-;-;13;;;teilweise bewölkt
18.01.2017;02:00:00;0;-5;-;-;6;;;Klarer Himmel
18.01.2017;03:00:00;0;-5;-;-;6;;;Klarer Himmel
18.01.2017;04:00:00;0;-5;-;-;4;;;Klarer Himmel
18.01.2017;05:00:00;11;-5;-;-;7;;;Klarer Himmel
18.01.2017;06:00:00;21;-6;-;-;2;;;
18.01.2017;07:00:00;39;-6;-;-;4;;;
18.01.2017;08:00:00;36;-7;-;-;4;;;
18.01.2017;09:00:00;13;-4;-;-;4;;;
18.01.2017;10:00:00;8;-3;-;-;6;;;
18.01.2017;11:00:00;5;-2;-;-;6;;;
18.01.2017;12:00:00;13;0;-;-;4;;;
18.01.2017;13:00:00;8;0;-;-;4;;;Klarer Himmel
18.01.2017;14:00:00;19;0;-;-;11;;;Klarer Himmel
18.01.2017;15:00:00;20;1;-;-;9;;;Klarer Himmel
18.01.2017;16:00:00;32;0;-;-;11;;;Klarer Himmel
18.01.2017;17:00:00;33;-1;-;-;6;;;Klarer Himmel
18.01.2017;18:00:00;17;-1;-;-;9;;;Klarer Himmel
18.01.2017;19:00:00;11;-1;-;-;9;;;Klarer Himmel
18.01.2017;20:00:00;9;-2;-;-;6;;;Klarer Himmel
18.01.2017;21:00:00;4;-3;-;-;4;;;Klarer Himmel
18.01.2017;22:00:00;4;-4;-;-;4;;;Klarer Himmel
18.01.2017;23:00:00;2;-4;-;-;4;;;Klarer Himmel
19.01.2017;00:00:00;0;-6;-;-;4;;;Klarer Himmel
19.01.2017;01:00:00;0;-7;-;-;2;;;Klarer Himmel
19.01.2017;02:00:00;0;-7;-;-;4;;;Klarer Himmel
19.01.2017;03:00:00;0;-7;-;-;4;;;Klarer Himmel
19.01.2017;04:00:00;0;-7;-;-;4;;;Klarer Himmel
19.01.2017;05:00:00;10;-7;-;-;6;;;Klarer Himmel
19.01.2017;06:00:00;13;-7;-;-;4;;;Klarer Himmel
19.01.2017;07:00:00;34;-5;-;-;2;;;Klarer Himmel
19.01.2017;08:00:00;44;-5;-;-;4;;;Klarer Himmel
19.01.2017;09:00:00;10;-2;-;-;2;;;Klarer Himmel
19.01.2017;10:00:00;13;0;-;-;2;;;Klarer Himmel
19.01.2017;11:00:00;4;0;-;-;7;;;Klarer Himmel
19.01.2017;12:00:00;10;2;-;-;6;;;Klarer Himmel
19.01.2017;13:00:00;13;4;-;-;11;;;Klarer Himmel
19.01.2017;14:00:00;24;5;-;-;11;;;Klarer Himmel
19.01.2017;15:00:00;29;4;-;-;9;;;Klarer Himmel
19.01.2017;16:00:00;30;3;-;-;7;;;Klarer Himmel
19.01.2017;17:00:00;31;1;-;-;9;;;Klarer Himmel
19.01.2017;18:00:00;23;-1;-;-;2;;;Klarer Himmel
19.01.2017;19:00:00;4;0;-;-;7;;;Klarer Himmel
19.01.2017;20:00:00;5;-1;-;-;4;;;Klarer Himmel
19.01.2017;21:00:00;6;-3;-;-;6;;;Klarer Himmel
19.01.2017;22:00:00;7;-3;-;-;4;;;Klarer Himmel
19.01.2017;23:00:00;3;-3;-;-;4;;;Klarer Himmel
20.01.2017;00:00:00;0;-4;-;-;4;;;Klarer Himmel
20.01.2017;01:00:00;2;-5;-;-;2;;;Klarer Himmel
20.01.2017;02:00:00;0;-6;-;-;4;;;Klarer Himmel
20.01.2017;03:00:00;0;-7;-;-;2;;;Klarer Himmel
20.01.2017;04:00:00;0;-7;-;-;2;;;Klarer Himmel
20.01.2017;05:00:00;10;-7;-;-;2;;;Klarer Himmel
20.01.2017;06:00:00;20;-7;-;-;2;;;Klarer Himmel
20.01.2017;07:00:00;34;-7;-;-;6;;;Klarer Himmel
20.01.2017;08:00:00;35;-6;-;-;4;;;Klarer Himmel
20.01.2017;09:00:00;16;-3;-;-;2;;;Klarer Himmel
20.01.2017;10:00:00;3;1;-;-;4;;;Klarer Himmel
20.01.2017;11:00:00;5;2;-;-;2;;;Klarer Himmel
20.01.2017;12:00:00;12;2;-;-;4;;;Klarer Himmel
20.01.2017;13:00:00;16;3;-;-;6;;;Klarer Himmel
20.01.2017;14:00:00;25;3;-;-;4;;;Klarer Himmel
20.01.2017;15:00:00;37;3;-;-;6;;;Klarer Himmel
20.01.2017;16:00:00;33;2;-;-;6;;;Klarer Himmel
20.01.2017;17:00:00;20;1;-;-;2;;;Klarer Himmel
20.01.2017;18:00:00;12;1;-;-;6;;;Klarer Himmel
20.01.2017;19:00:00;11;1;-;-;7;;;Klarer Himmel
20.01.2017;20:00:00;10;2;-;-;15;;;Klarer Himmel
20.01.2017;21:00:00;5;1;-;-;15;;;Klarer Himmel
20.01.2017;22:00:00;3;0;-;-;13;;;Klarer Himmel
20.01.2017;23:00:00;3;0;-;-;11;;;Klarer Himmel
21.01.2017;00:00:00;0;-1;-;-;4;;;Klarer Himmel
21.01.2017;01:00:00;2;-1;-;-;6;;;Klarer Himmel
21.01.2017;02:00:00;1;-2;-;-;4;;;Klarer Himmel
21.01.2017;03:00:00;0;-2;-;-;6;;;Klarer Himmel
21.01.2017;04:00:00;1;-5;-;-;2;;;Klarer Himmel
21.01.2017;05:00:00;0;-5;-;-;2;;;Klarer Himmel
21.01.2017;06:00:00;3;-5;-;-;2;;;Klarer Himmel
21.01.2017;07:00:00;2;-6;-;-;4;;;Klarer Himmel
21.01.2017;08:00:00;3;-5;-;-;4;;;Klarer Himmel
21.01.2017;09:00:00;8;-2;-;-;4;;;Klarer Himmel
21.01.2017;10:00:00;15;1;-;-;2;;;Klarer Himmel
21.01.2017;11:00:00;22;3;-;-;4;;;Klarer Himmel
21.01.2017;12:00:00;28;6;-;-;15;;;Klarer Himmel
21.01.2017;13:00:00;37;6;-;-;11;;;Klarer Himmel
21.01.2017;14:00:00;46;6;-;-;11;;;Klarer Himmel
21.01.2017;15:00:00;36;6;-;-;9;;;Klarer Himmel
21.01.2017;16:00:00;34;4;-;-;6;;;Klarer Himmel
21.01.2017;17:00:00;8;1;-;-;6;;;Klarer Himmel
21.01.2017;18:00:00;2;-1;-;-;6;;;Klarer Himmel
21.01.2017;19:00:00;3;-1;-;-;6;;;Klarer Himmel
21.01.2017;20:00:00;2;-1;-;-;7;;;Klarer Himmel
21.01.2017;21:00:00;1;-2;-;-;9;;;Klarer Himmel
21.01.2017;22:00:00;0;0;-;-;17;;;Klarer Himmel
21.01.2017;23:00:00;1;-1;-;-;11;;;Klarer Himmel
22.01.2017;00:00:00;1;-1;-;-;11;;;Klarer Himmel
22.01.2017;01:00:00;0;-2;-;-;13;;;Klarer Himmel
22.01.2017;02:00:00;0;-3;-;-;11;;;Klarer Himmel
22.01.2017;03:00:00;0;-2;-;-;13;;;Klarer Himmel
22.01.2017;04:00:00;0;-2;-;-;9;;;Klarer Himmel
22.01.2017;05:00:00;0;-4;-;-;9;;;Klarer Himmel
22.01.2017;06:00:00;1;-5;-;-;4;;;Klarer Himmel
22.01.2017;07:00:00;1;-4;-;-;7;;;Klarer Himmel
22.01.2017;08:00:00;2;-4;-;-;6;;;Klarer Himmel
22.01.2017;09:00:00;7;-1;-;-;4;;;Klarer Himmel
22.01.2017;10:00:00;7;0;-;-;7;;;Klarer Himmel
22.01.2017;11:00:00;32;1;-;-;9;;;Klarer Himmel
22.01.2017;12:00:00;43;2;-;-;9;;;Klarer Himmel
22.01.2017;13:00:00;53;3;-;-;7;;;Klarer Himmel
22.01.2017;14:00:00;54;3;-;-;6;;;Klarer Himmel
22.01.2017;15:00:00;40;2;-;-;9;;;Klarer Himmel
22.01.2017;16:00:00;34;1;-;-;7;;;Klarer Himmel
22.01.2017;17:00:00;8;-2;-;-;2;;;Klarer Himmel
22.01.2017;18:00:00;2;-3;-;-;2;;;Klarer Himmel
22.01.2017;19:00:00;4;-4;-;-;2;;;Klarer Himmel
22.01.2017;20:00:00;2;-5;-;-;2;;;Klarer Himmel
22.01.2017;21:00:00;1;-5;-;-;4;;;Klarer Himmel
22.01.2017;22:00:00;3;-6;-;-;4;;;Klarer Himmel
22.01.2017;23:00:00;0;-7;-;-;2;;;Klarer Himmel
23.01.2017;00:00:00;0;-7;-;-;2;;;Klarer Himmel
23.01.2017;01:00:00;0;-8;-;-;6;;;Klarer Himmel
23.01.2017;02:00:00;1;-7;-;-;6;;;Klarer Himmel
23.01.2017;03:00:00;0;-8;-;-;4;;;Klarer Himmel
23.01.2017;04:00:00;3;-8;-;-;6;;;
23.01.2017;05:00:00;8;-7;-;-;4;;;wolkig